CAPE
552 432 183 0 33 0 23 80 14 58 84 115 45 15 0 0 0 0 0 0 0 0 0 0 0 0 6 31 40 31 30 35 6 1 104 187 304 356 412 303 152 121 0 319
16 242 292 50 40 48 72 30 9 124 101 102 78 0 0 0 0 0 0 0 0 0 0 2 1 0 6 36 21 16 16 6 12 15 121 298 271 180 332 491 380 303 377 633
190 200 48 25 29 109 55 85 63 178 149 13 10 0 3 0 0 0 0 0 0 0 0 0 0 28 30 29 31 14 0 2 0 29 200 453 392 368 469 471 466 472 418 890
110 10 25 7 10 6 2 38 88 91 122 0 0 10 19 9 1 0 0 0 0 0 0 0 0 64 62 56 30 5 0 14 36 113 321 713 674 482 135 182 346 472 1154 1126
213 76 11 16 3 0 2 32 151 89 1 17 8 1 0 9 11 2 0 0 0 0 0 0 1 45 47 40 12 0 24 76 179 207 478 397 598 228 186 453 514 46 384 569
58 0 12 10 15 83 228 156 4 5 0 0 0 0 0 0 5 1 0 0 0 0 0 0 0 35 25 8 6 7 108 99 56 107 291 416 503 676 599 423 462 280 12 189
0 0 1 0 116 64 7 0 0 0 0 0 0 0 4 0 0 0 5 0 0 0 0 0 0 3 5 0 16 72 72 125 84 82 203 388 559 649 806 555 578 512 391 41
0 0 0 0 150 156 4 0 0 0 11 0 0 10 14 0 129 13 0 7 18 22 1 0 11 0 0 0 73 117 100 98 240 227 267 383 551 857 680 771 547 437 480 100
0 0 0 0 0 21 14 0 0 6 0 0 0 0 0 89 389 267 36 76 105 57 57 58 129 123 77 0 0 123 121 61 155 590 562 562 682 785 1203 1460 944 827 498 430
0 0 0 0 0 0 0 0 0 0 0 0 0 0 0 86 300 267 191 20 55 32 0 10 4 19 9 2 0 47 126 131 131 415 1019 1136 943 1003 1080 1186 1336 882 864 702
0 0 0 0 0 0 1 0 0 0 0 0 0 0 0 0 0 355 226 97 0 0 8 1 0 19 6 0 1 94 358 517 395 544 725 1104 1652 1673 1395 1433 1353 1105 930 877
0 0 0 0 0 0 0 0 0 0 0 0 0 0 0 0 0 179 341 119 0 0 0 0 16 0 386 1514 126 79 351 885 819 870 1113 1153 1225 1778 2009 1771 1704 1699 1732 1121
0 0 0 0 0 0 0 0 0 0 0 1 4 0 0 0 0 0 433 168 0 0 0 0 3 21 1787 1943 1399 254 853 1058 1026 1053 1188 1538 1674 1845 2112 2139 1871 1739 1673 1503
0 0 0 0 0 0 0 0 0 0 191 0 0 0 0 14 438 178 447 214 1 0 0 0 358 1040 1911 1878 1877 1689 992 964 1042 1086 1333 1624 1787 1930 2092 2147 2090 1991 1807 1628
0 0 0 0 0 0 0 0 0 0 12 258 22 67 0 803 503 294 256 89 0 0 12 1241 1708 1701 1715 1925 2039 2074 2009 1635 707 1099 1461 1676 1831 1906 1942 1928 1757 1359 997 597
0 0 0 7 1 0 0 0 0 0 1 274 4 120 504 855 1359 1430 1209 868 470 588 1552 1830 1832 1910 1861 1676 1583 1792 1797 2017 1861 1742 1800 1843 1981 1543 1309 1062 737 338 155 165
0 0 0 47 0 0 0 0 0 133 195 322 82 264 715 1016 1791 1738 1573 1494 1547 1771 1777 1692 1586 1605 1446 1610 1601 1756 1539 1499 1664 1561 1143 1020 833 879 872 696 533 575 565 417
0 0 0 0 0 0 0 67 224 284 236 254 692 596 831 862 681 920 956 1283 1284 1338 1330 847 673 695 757 925 1188 1132 1230 1235 1211 1068 899 864 826 693 995 911 789 780 757 747
0 0 0 0 0 0 112 41 324 261 227 349 587 380 410 281 458 467 446 972 882 793 413 356 490 471 513 600 856 899 933 909 1004 1039 1037 1031 1097 979 929 787 705 589 419 455
0 0 0 0 0 0 0 66 164 176 67 335 366 354 324 456 855 668 460 622 468 314 270 450 333 133 225 284 583 822 812 815 814 816 795 750 726 668 708 693 780 572 498 262
0 0 0 0 0 0 0 120 210 5 1 119 215 150 328 553 444 274 366 298 311 207 282 336 166 246 347 306 565 609 462 681 687 809 928 917 707 755 771 703 729 496 276 47
1 1 0 0 0 90 13 318 90 0 20 112 13 149 214 288 471 692 375 240 169 248 225 194 170 241 349 433 536 511 688 673 894 1069 868 889 986 1217 566 457 398 283 356 2
31 0 0 1 0 0 97 22 5 6 180 165 12 122 295 235 242 282 388 287 161 126 110 54 103 265 283 325 340 456 674 1020 1065 855 862 827 227 305 429 332 358 2 47 0
0 1 105 124 166 94 10 27 6 29 11 2 2 185 209 60 0 8 209 198 38 39 63 19 224 413 391 325 372 418 734 945 876 869 703 706 498 150 395 58 7 0 0 0
60 104 96 79 150 256 115 50 11 95 259 219 220 259 274 226 228 240 413 164 0 46 63 191 291 444 464 472 550 739 943 954 1120 763 646 696 755 640 174 52 0 7 0 0
9 43 314 428 129 265 279 60 48 286 278 368 437 557 578 294 170 189 297 139 0 74 202 292 379 523 609 649 599 758 673 804 1215 990 954 862 723 597 515 69 136 0 1 1
CIN
-317 -213 -162 -14 -216 0 -130 -116 -91 -151 -178 -98 -127 -31 0 0 0 0 0 0 0 0 0 0 0 0 -393 -379 -387 -405 -416 -315 -409 -24 -226 -219 -155 -154 -181 -212 -242 -173 0 -173
-446 -196 -172 -192 -125 -74 -149 -189 -151 -221 -241 -164 -160 0 0 0 0 0 0 0 0 0 0 -268 -212 0 -464 -402 -430 -464 -488 -382 -400 -369 -273 -183 -176 -207 -196 -211 -210 -211 -162 -128
-147 -87 -130 -225 -208 -159 -222 -205 -216 -123 -204 -111 -106 0 -135 0 0 0 0 0 0 0 0 0 -151 -374 -464 -445 -453 -522 0 -293 0 -310 -264 -202 -208 -209 -193 -224 -209 -185 -163 -112
-204 -158 -141 -252 -165 -224 -57 -268 -195 -132 -198 0 0 -87 -279 -272 -93 0 0 0 0 0 0 0 0 -338 -436 -437 -439 -551 0 -211 -315 -326 -226 -149 -119 -136 -230 -238 -239 -201 -138 -105
-81 -100 -214 -156 -154 -10 -16 -276 -219 -168 -351 -286 -380 -201 0 -339 -257 -271 0 0 0 0 0 0 -298 -366 -372 -408 -460 0 -435 -397 -322 -331 -252 -228 -159 -257 -284 -253 -220 -355 -230 -174
-112 0 -223 -101 -165 -192 -237 -232 -204 -206 0 -15 0 0 0 0 -211 -139 0 0 0 0 0 0 -68 -354 -420 -410 -405 -174 -392 -392 -437 -411 -324 -238 -198 -168 -204 -240 -228 -254 -130 -276
0 0 -94 -4 -175 -264 -125 -15 0 0 0 -28 0 0 -81 0 0 0 -332 0 0 0 0 0 0 -140 -219 0 -354 -476 -414 -360 -419 -414 -366 -303 -267 -241 -190 -207 -225 -224 -252 -258
0 0 0 0 -126 -156 -35 0 0 0 -120 -20 -31 -227 -176 0 -446 -482 -27 -405 -368 -376 -245 0 -297 0 0 -24 -360 -323 -422 -342 -357 -354 -346 -331 -302 -254 -269 -227 -260 -265 -263 -310
0 0 0 0 0 -167 -219 0 0 -269 0 0 0 0 0 -410 -362 -411 -421 -384 -394 -414 -345 -346 -300 -289 -307 0 0 -341 -362 -383 -373 -316 -314 -327 -315 -289 -228 -187 -247 -243 -304 -285
0 0 0 0 0 0 0 0 -46 0 0 0 0 0 0 -251 -238 -349 -322 -393 -366 -349 -24 -353 -185 -319 -345 -87 0 -335 -314 -372 -336 -332 -312 -267 -297 -304 -268 -242 -212 -266 -255 -272
0 0 0 0 0 0 -176 0 0 0 0 0 0 0 0 0 -70 -292 -356 -394 0 0 -232 -101 0 -420 -120 0 -84 -321 -259 -353 -355 -337 -333 -319 -288 -274 -273 -251 -273 -285 -289 -273
0 0 0 0 0 0 0 0 0 0 0 0 0 0 0 0 0 -405 -316 -438 0 0 0 0 -497 -26 -332 -212 -405 -347 -337 -344 -332 -317 -297 -342 -338 -286 -245 -250 -249 -237 -214 -288
0 0 0 0 0 0 0 0 0 0 0 -74 -201 0 0 -117 0 0 -290 -423 0 0 0 0 -244 -401 -150 -199 -270 -424 -363 -343 -332 -306 -333 -321 -301 -283 -245 -225 -221 -205 -192 -206
0 0 0 0 0 0 0 0 0 0 -174 0 0 0 0 -246 -324 -411 -327 -372 -97 0 0 0 -306 -230 -172 -200 -245 -334 -381 -372 -375 -359 -347 -315 -283 -263 -228 -207 -194 -160 -152 -153
0 0 0 0 0 0 0 0 0 0 -34 -69 -156 -276 0 -277 -282 -299 -353 -397 0 0 -292 -221 -201 -214 -195 -176 -194 -228 -281 -350 -436 -377 -323 -288 -249 -233 -208 -174 -180 -229 -279 -304
0 -2 -3 -115 -73 -76 0 0 0 0 -7 -274 -456 -339 -438 -405 -274 -253 -286 -302 -339 -327 -212 -190 -167 -151 -149 -159 -186 -211 -268 -283 -281 -272 -256 -239 -220 -247 -263 -269 -313 -391 -388 -381
0 0 0 -55 0 0 0 0 0 -332 -380 -408 -148 -271 -436 -314 -183 -189 -217 -214 -216 -174 -175 -156 -144 -119 -116 -107 -139 -150 -177 -199 -195 -241 -299 -326 -326 -290 -296 -315 -301 -268 -239 -262
0 0 0 0 0 0 0 -390 -388 -386 -438 -457 -361 -529 -387 -328 -333 -257 -282 -262 -241 -226 -214 -244 -234 -203 -197 -176 -131 -162 -156 -182 -189 -216 -250 -261 -272 -270 -190 -188 -184 -166 -155 -138
0 0 0 0 0 0 -126 -225 -195 -179 -219 -446 -358 -484 -413 -390 -294 -277 -294 -260 -290 -287 -331 -295 -245 -241 -245 -214 -181 -177 -158 -168 -162 -153 -165 -167 -148 -159 -146 -152 -161 -179 -211 -187
0 0 0 0 0 0 0 -329 -494 -400 -85 -454 -431 -395 -369 -321 -155 -216 -321 -292 -333 -336 -348 -245 -259 -372 -346 -338 -250 -183 -183 -168 -165 -159 -160 -184 -196 -190 -167 -163 -135 -170 -181 -257
0 0 0 0 0 0 0 -377 -478 -31 -64 -518 -518 -517 -478 -247 -347 -460 -415 -366 -369 -399 -317 -299 -295 -262 -281 -363 -267 -254 -292 -185 -201 -178 -159 -150 -177 -147 -139 -145 -148 -174 -236 -410
-81 -53 0 0 0 -75 -478 -356 -292 0 -770 -613 -636 -535 -538 -586 -592 -459 -402 -364 -398 -329 -341 -320 -302 -275 -303 -303 -272 -295 -196 -209 -166 -135 -147 -138 -118 -92 -166 -184 -218 -261 -201 -119
-77 0 0 -7 0 -12 -477 -27 -695 -667 -572 -673 -798 -778 -562 -564 -489 -431 -336 -390 -406 -415 -366 -405 -367 -323 -340 -339 -366 -301 -215 -159 -144 -149 -136 -130 -295 -256 -221 -238 -198 -53 -415 0
0 -72 -161 -223 -239 -390 -476 -704 -704 -692 -726 -833 -536 -713 -601 -607 0 -528 -458 -422 -384 -475 -363 -419 -348 -268 -272 -335 -362 -320 -226 -175 -151 -128 -153 -149 -170 -315 -211 -158 -445 0 0 0
-295 -351 -304 -292 -362 -379 -474 -543 -676 -789 -782 -769 -727 -651 -505 -619 -554 -476 -408 -402 0 -454 -452 -373 -275 -251 -233 -298 -280 -221 -178 -166 -110 -138 -153 -139 -141 -149 -307 -238 0 -287 0 0
-390 -282 -111 -86 -258 -213 -247 -588 -768 -647 -595 -586 -528 -498 -500 -558 -506 -496 -460 -471 0 -441 -421 -350 -272 -222 -231 -247 -241 -191 -213 -167 -92 -105 -115 -124 -156 -183 -197 -437 -222 0 0 0
Wind_Speed
2 3 6 10 6 7 9 9 5 2 1 2 2 4 17 15 12 9 8 9 11 13 17 10 8 9 6 7 8 9 8 8 4 3 2 1 3 3 3 4 5 4 3 4
4 6 10 5 6 6 7 4 3 4 2 5 1 9 15 16 18 15 12 10 12 13 11 9 10 12 13 12 11 7 8 7 7 3 3 3 2 3 3 2 3 4 3 4
7 7 4 8 9 8 5 7 3 1 4 5 5 4 6 14 12 10 10 10 11 13 14 8 8 9 10 13 14 12 12 8 8 6 1 1 2 1 1 2 2 4 5 5
7 4 3 5 6 10 5 16 9 4 2 3 2 4 7 8 16 17 16 14 15 14 14 9 9 7 10 12 11 11 10 9 9 7 4 5 4 4 3 2 2 2 4 6
8 6 4 5 8 8 8 11 12 4 2 2 5 1 6 4 9 13 19 18 19 20 15 11 15 15 12 11 12 10 9 8 8 7 7 5 4 3 1 1 3 2 3 4
7 3 5 6 2 4 14 12 9 6 5 4 4 2 6 5 8 3 8 17 18 18 14 11 10 11 8 8 7 6 8 11 7 7 8 8 8 5 3 3 3 3 2 3
5 4 4 4 10 5 8 8 4 2 2 6 5 2 10 6 6 9 15 18 16 10 10 8 9 7 6 8 11 10 9 11 8 8 7 8 8 7 7 6 4 4 3 3
3 7 6 5 10 12 8 7 5 5 5 4 5 5 6 6 9 15 14 15 11 10 12 11 8 7 7 7 9 10 10 12 9 8 9 7 7 5 5 5 4 4 4 4
5 6 3 3 6 8 7 5 2 7 0 1 3 7 9 3 6 6 4 7 9 8 7 16 13 8 7 6 11 14 12 11 9 12 8 8 7 7 7 7 6 4 5 4
5 2 4 5 3 6 6 8 1 4 2 4 5 6 8 4 5 4 5 6 3 4 5 4 9 5 3 1 10 13 13 14 14 10 9 10 9 7 6 6 7 6 6 5
6 4 6 1 4 6 2 3 6 5 4 6 3 9 9 9 6 7 6 5 7 5 5 2 5 6 6 5 6 10 12 9 9 9 9 9 8 7 6 7 7 6 5 6
8 6 5 11 3 3 5 8 6 6 5 3 1 9 1 5 4 6 6 6 6 6 5 6 5 5 6 6 6 8 6 9 11 8 7 9 7 6 6 6 7 5 7 6
10 3 2 11 8 3 3 6 5 6 4 5 6 8 3 3 3 8 8 6 6 6 4 2 3 3 3 4 3 4 6 10 7 7 7 6 6 6 6 6 6 6 6 7
10 5 9 9 7 4 2 5 5 6 5 5 8 1 4 7 8 6 5 5 6 5 3 3 3 2 3 4 3 4 1 6 6 7 8 7 6 6 5 5 5 4 5 6
5 7 6 4 5 4 6 5 8 7 8 8 9 9 7 8 9 8 7 6 4 6 6 4 5 5 5 4 6 6 5 2 5 6 6 5 5 4 5 3 4 1 4 4
3 2 2 4 4 1 5 7 9 5 5 3 7 4 3 2 6 5 7 9 6 6 6 7 5 5 5 5 5 6 6 7 6 6 5 3 5 6 5 3 6 6 5 7
3 6 4 4 3 5 4 4 4 2 4 5 7 8 8 4 9 9 7 9 9 7 6 7 6 5 2 3 4 6 6 6 8 8 7 6 6 8 6 5 6 5 4 4
5 4 2 4 3 2 7 3 3 8 5 3 5 5 5 7 4 7 6 9 10 10 8 6 6 4 4 3 5 5 6 6 7 6 6 5 6 6 6 6 5 3 2 3
2 6 4 5 1 5 3 6 6 6 3 7 7 4 7 5 4 4 4 6 10 11 8 7 6 5 4 5 5 7 6 6 7 6 6 5 6 6 6 5 4 2 4 4
2 5 5 3 4 6 9 4 3 2 2 8 11 10 9 6 7 6 7 8 8 10 10 8 7 6 7 4 5 7 6 6 6 5 5 5 6 6 6 4 3 2 2 3
1 3 5 3 3 7 6 3 3 5 7 5 11 10 8 8 6 7 8 6 9 10 8 7 7 7 7 6 6 7 6 6 4 4 4 5 5 4 3 2 2 3 4 5
9 7 4 2 3 5 5 5 6 5 4 6 8 10 8 5 7 11 9 9 9 9 6 8 7 7 6 6 7 7 6 4 4 4 5 4 2 2 2 4 3 3 3 5
2 9 8 9 10 5 21 3 3 5 6 5 7 6 9 8 7 9 8 10 7 8 7 5 8 7 5 5 6 7 6 5 5 4 4 2 2 2 3 3 2 3 3 4
3 4 3 4 1 5 16 4 2 2 5 6 7 10 9 8 9 6 5 8 9 9 8 6 8 8 7 6 6 5 7 6 5 4 2 1 0 2 2 2 2 2 1 2
4 4 5 2 3 7 4 2 8 9 11 11 9 7 10 11 7 6 6 8 7 7 7 9 9 7 8 7 5 6 6 6 5 3 2 1 1 3 4 2 1 1 2 1
3 6 5 7 8 5 6 7 9 13 13 13 13 9 9 9 10 7 6 6 7 7 6 8 7 7 7 7 6 6 6 6 5 3 1 2 2 3 4 2 2 2 1 2
Wind_Direction
131 82 222 214 184 167 114 133 208 230 16 243 145 212 184 195 206 207 218 203 211 218 229 217 209 202 196 197 192 193 188 215 182 214 180 173 238 227 242 237 225 205 218 199
66 238 236 197 175 150 133 159 241 163 203 159 166 184 184 190 209 205 201 223 219 234 240 222 212 188 188 193 198 189 205 214 213 206 191 174 201 219 231 226 226 218 210 218
169 235 146 155 175 175 206 210 174 68 101 64 40 294 212 208 219 215 216 218 238 224 236 213 206 198 190 192 189 193 203 207 220 216 165 28 342 344 338 283 236 212 208 223
238 281 179 184 190 170 218 217 170 113 43 184 174 249 219 196 211 217 218 210 237 240 236 226 209 183 197 197 194 188 194 206 215 189 185 188 209 217 223 225 223 228 180 188
250 314 306 227 218 149 246 175 154 93 336 359 342 103 263 153 218 218 211 208 214 233 231 217 196 201 203 188 188 187 193 207 205 185 193 201 221 243 306 265 259 218 216 218
251 283 163 207 85 122 112 88 50 46 39 331 251 193 290 192 223 223 211 210 208 213 214 221 201 198 192 187 166 169 195 215 216 199 198 201 216 224 236 230 238 242 230 213
335 247 261 158 82 11 75 77 79 340 186 232 212 81 240 257 235 217 208 205 200 187 177 183 190 187 177 176 178 189 190 220 216 213 220 205 207 205 221 229 220 214 211 213
152 326 173 200 167 179 185 160 164 202 194 249 206 235 247 236 291 245 214 177 163 166 167 167 147 149 186 180 189 199 193 217 209 211 225 226 206 200 217 219 221 228 230 228
144 274 291 218 189 144 192 206 163 108 112 314 266 290 295 298 347 356 129 141 157 136 169 165 151 142 157 204 200 197 202 212 213 218 223 228 215 197 210 224 224 219 209 239
212 329 226 278 98 63 169 162 128 10 122 294 286 291 240 266 271 280 196 174 149 118 139 193 145 137 98 350 223 204 204 202 208 205 211 229 230 217 201 217 225 222 230 231
138 120 259 4 179 171 86 283 48 109 131 174 223 261 216 210 209 230 217 179 156 210 196 144 73 64 18 291 255 204 204 195 199 200 206 213 221 224 196 222 226 217 221 228
193 152 239 237 233 101 195 187 147 125 238 247 170 275 292 161 210 232 234 162 171 192 238 70 63 16 311 293 254 212 194 188 205 203 207 217 219 213 212 219 244 220 218 224
177 228 317 334 352 67 182 219 134 105 95 201 150 260 22 137 250 237 222 154 175 180 192 189 142 245 285 335 317 234 202 206 198 187 188 200 213 208 224 226 223 245 249 240
98 128 164 195 210 146 167 255 178 148 137 178 229 290 219 191 182 182 186 131 152 167 134 33 0 199 61 12 0 61 205 216 194 189 187 186 198 211 225 242 235 237 259 265
117 172 171 179 139 150 210 244 238 174 188 164 225 175 222 170 169 181 164 120 131 136 146 128 130 108 75 44 22 11 33 66 185 180 179 189 186 190 223 255 298 33 50 2
347 172 171 114 26 201 211 225 274 214 165 68 108 118 166 72 91 115 142 140 139 130 117 106 93 80 71 56 42 16 22 46 71 93 102 137 121 82 70 48 60 48 357 16
65 119 85 258 349 279 300 298 283 45 101 140 145 205 146 132 151 163 145 129 131 134 137 140 133 125 119 63 47 62 62 38 60 67 53 69 95 97 70 56 79 70 52 55
121 94 95 194 5 217 247 309 98 116 78 4 63 95 122 149 134 130 143 141 140 144 145 146 153 156 150 121 96 92 81 79 85 77 78 75 77 88 97 93 79 69 47 42
256 127 82 121 116 300 310 258 181 173 224 169 124 134 115 111 72 36 136 159 146 158 152 163 160 151 134 119 124 102 85 81 79 74 76 81 92 90 96 89 81 58 51 42
43 70 119 134 142 197 234 261 306 209 317 191 145 154 154 152 157 206 147 142 142 152 151 156 157 139 134 154 115 97 95 92 88 91 95 90 87 88 85 82 67 45 56 46
88 26 140 156 156 283 236 200 266 117 237 128 152 144 149 185 190 146 131 129 157 154 158 149 144 152 155 149 121 107 109 104 121 103 88 81 89 103 104 75 47 46 46 64
164 143 187 121 74 263 165 75 204 201 341 159 147 159 150 133 133 129 128 137 145 137 158 155 145 157 155 154 127 129 125 154 130 103 85 62 93 67 65 57 28 39 94 86
186 175 179 164 204 232 178 63 132 162 154 178 114 127 142 133 133 144 134 133 140 169 171 165 150 139 147 164 144 137 164 137 125 118 114 93 16 8 28 30 35 53 62 96
289 133 128 108 274 210 192 83 117 131 110 125 121 138 147 144 147 135 119 130 156 173 161 153 138 143 162 191 163 150 152 145 134 128 126 152 345 330 9 59 47 76 30 81
205 129 148 283 37 75 18 206 143 119 120 127 143 155 158 134 144 136 127 130 153 169 156 153 160 154 180 177 169 165 158 144 151 159 186 225 271 280 284 78 21 282 245 193
189 172 139 209 209 168 199 182 148 146 168 161 159 170 162 142 149 135 132 122 145 168 160 145 157 159 178 165 175 177 170 158 152 177 210 250 258 258 269 229 238 125 256 54